STARLINK-2641

decayed
NORAD ID: 48369 Int'l Des: 2021-038 Owner: SPXS Country: US Constellation: starlink
LEOCIRCULAR
Group

About STARLINK-2641

Description loading...

Altitude History

Altitude vs Time

uPlot chart will show altitude changes over time

Two-Line Element Set

1 48369U 21038S 25097.28247319 .19133135 12466-4 65147-3 0 9998
2 48369 53.0490 37.3890 0004806 258.8799 224.6677 16.44385808217381
Epoch: Apr 7, 2025 • Age: 3705 hours

Current Status

Position data unavailable
Launch Date May 4, 2021
Age 4.3 years
Decay Date Apr 7, 2025
Type internet

Technical Details

Classification Payload
Mass 260.00 kg
Dry Mass 248.00 kg
Total Mass 260.00 kg
Length 0.20 m
Diameter 2.80 m
Span 9.00 m
Shape Box + pan
Manufacturer SPXS
Bus Type Starlink
Phase Status Reentered
Owner/State SPXS/US

Large Constellations

Loading constellations...